| time (UTC) | temp F | wind direction | speed MPH | gust MPH | rain 1hr in | rain 24hr in | rain mn in | humidity % | barometer mb |
| 20260902192016 | 93 | 248 | 7.0 | 13.0 | 0.00 | 0.00 | 0.00 | 42 | 1026.9 |
| 20260902191016 | 93 | 225 | 6.0 | 13.0 | 0.00 | 0.00 | 0.00 | 42 | 1027.3 |
| 20260902190036 | 93 | 203 | 5.0 | 9.0 | 0.00 | 0.00 | 0.00 | 42 | 1027.5 |
| 20260902185016 | 92 | 225 | 4.0 | 10.0 | 0.00 | 0.00 | 0.00 | 42 | 1027.3 |
| 20260902184017 | 92 | 248 | 7.0 | 12.0 | 0.00 | 0.00 | 0.00 | 42 | 1027.7 |
| 20260902183016 | 92 | 315 | 5.0 | 10.0 | 0.00 | 0.00 | 0.00 | 44 | 1027.9 |
| 20260902182016 | 91 | 338 | 4.0 | 7.0 | 0.00 | 0.00 | 0.00 | 44 | 1027.8 |
| 20260902181017 | 91 | 248 | 6.0 | 10.0 | 0.00 | 0.00 | 0.00 | 44 | 1028.1 |
| 20260902180016 | 90 | 225 | 3.0 | 8.0 | 0.00 | 0.00 | 0.00 | 45 | 1028.3 |
| 20260902175016 | 91 | 270 | 4.0 | 9.0 | 0.00 | 0.00 | 0.00 | 45 | 1028.2 |
| 20260902174017 | 91 | 248 | 5.0 | 8.0 | 0.00 | 0.00 | 0.00 | 46 | 1028.4 |
| 20260902173016 | 91 | 315 | 4.0 | 8.0 | 0.00 | 0.00 | 0.00 | 46 | 1028.5 |
| 20260902172016 | 91 | 203 | 3.0 | 8.0 | 0.00 | 0.00 | 0.00 | 46 | 1028.6 |
| 20260902171016 | 90 | 203 | 4.0 | 9.0 | 0.00 | 0.00 | 0.00 | 47 | 1028.6 |
| 20260902170016 | 89 | 180 | 2.0 | 6.0 | 0.00 | 0.00 | 0.00 | 48 | 1028.6 |
| 20260902165017 | 88 | 293 | 1.0 | 2.0 | 0.00 | 0.00 | 0.00 | 50 | 1028.6 |
| 20260902164016 | 88 | 248 | 3.0 | 6.0 | 0.00 | 0.00 | 0.00 | 50 | 1028.8 |
| 20260902163016 | 89 | 0.0 | 1.0 | 0.00 | 0.00 | 0.00 | 49 | 1029.0 | |
| 20260902162016 | 88 | 135 | 2.0 | 6.0 | 0.00 | 0.00 | 0.00 | 50 | 1028.8 |
| 20260902161016 | 88 | 180 | 1.0 | 5.0 | 0.00 | 0.00 | 0.00 | 51 | 1028.8 |
| 20260902160016 | 87 | 180 | 2.0 | 4.0 | 0.00 | 0.00 | 0.00 | 51 | 1028.8 |
| 20260902155037 | 86 | 203 | 3.0 | 6.0 | 0.00 | 0.00 | 0.00 | 53 | 1028.6 |
| 20260902154016 | 85 | 225 | 3.0 | 7.0 | 0.00 | 0.00 | 0.00 | 54 | |
| 20260902153017 | 84 | 180 | 2.0 | 4.0 | 0.00 | 0.00 | 0.00 | 55 | |
| 20260902152036 | 84 | 293 | 3.0 | 4.0 | 0.00 | 0.00 | 0.00 | 57 | |
| 20260902151016 | 83 | 0.0 | 2.0 | 0.00 | 0.00 | 0.00 | 60 | ||
| 20260902150016 | 82 | 315 | 1.0 | 3.0 | 0.00 | 0.00 | 0.00 | 63 | |
| 20260902145016 | 80 | 0.0 | 0.0 | 0.00 | 0.00 | 0.00 | 69 | ||
| 20260902144016 | 78 | 0.0 | 0.0 | 0.00 | 0.00 | 0.00 | 73 | 1028.4 | |
| 20260902143016 | 77 | 0.0 | 0.0 | 0.00 | 0.00 | 0.00 | 75 | 1028.2 | |
| 20260902142016 | 76 | 0.0 | 0.0 | 0.00 | 0.00 | 0.00 | 78 | 1028.1 | |
| 20260902141016 | 75 | 0.0 | 1.0 | 0.00 | 0.00 | 0.00 | 79 | ||
| 20260902140017 | 74 | 0.0 | 0.0 | 0.00 | 0.00 | 0.00 | 80 | ||
| 20260902135016 | 74 | 203 | 1.0 | 2.0 | 0.00 | 0.00 | 0.00 | 80 | |
| 20260902134016 | 74 | 203 | 2.0 | 3.0 | 0.00 | 0.00 | 0.00 | 79 | |
| 20260902133016 | 74 | 23 | 2.0 | 3.0 | 0.00 | 0.00 | 0.00 | 78 | |
| 20260902132016 | 74 | 68 | 2.0 | 4.0 | 0.00 | 0.00 | 0.00 | 78 | |
| 20260902131016 | 73 | 45 | 2.0 | 4.0 | 0.00 | 0.00 | 0.00 | 79 | |
| 20260902130016 | 73 | 68 | 3.0 | 4.0 | 0.00 | 0.00 | 0.00 | 80 | |
| 20260902125016 | 72 | 68 | 2.0 | 4.0 | 0.00 | 0.00 | 0.00 | 80 | |
| 20260902124016 | 72 | 68 | 3.0 | 5.0 | 0.00 | 0.00 | 0.00 | 80 | |
| 20260902123036 | 72 | 68 | 3.0 | 4.0 | 0.00 | 0.00 | 0.00 | 81 | |
| 20260902122016 | 72 | 45 | 3.0 | 4.0 | 0.00 | 0.00 | 0.00 | 81 | |
| 20260902121016 | 72 | 68 | 3.0 | 4.0 | 0.00 | 0.00 | 0.00 | 81 | |
| 20260902120056 | 72 | 68 | 2.0 | 3.0 | 0.00 | 0.00 | 0.00 | 81 | |
| 20260902115056 | 72 | 0.0 | 0.0 | 0.00 | 0.00 | 0.00 | 80 | ||
| 20260902114016 | 72 | 0.0 | 0.0 | 0.00 | 0.00 | 0.00 | 79 | ||
| 20260902113016 | 73 | 0.0 | 0.0 | 0.00 | 0.00 | 0.00 | 78 | ||
| 20260902112016 | 73 | 0.0 | 0.0 | 0.00 | 0.00 | 0.00 | 79 | ||
| 20260902111016 | 72 | 45 | 2.0 | 4.0 | 0.00 | 0.00 | 0.00 | 78 | |
| 20260902110016 | 72 | 45 | 3.0 | 5.0 | 0.00 | 0.00 | 0.00 | 79 | |
| 20260902105016 | 72 | 68 | 3.0 | 4.0 | 0.00 | 0.00 | 0.00 | 80 | |
| 20260902104016 | 72 | 45 | 2.0 | 3.0 | 0.00 | 0.00 | 0.00 | 80 | 1027.8 |
| 20260902103016 | 72 | 45 | 2.0 | 3.0 | 0.00 | 0.00 | 0.00 | 79 | 1027.9 |
| 20260902102016 | 72 | 45 | 2.0 | 3.0 | 0.00 | 0.00 | 0.00 | 79 | 1027.9 |
| 20260902101016 | 72 | 0.0 | 2.0 | 0.00 | 0.00 | 0.00 | 79 | 1027.7 | |
| 20260902100036 | 73 | 0.0 | 1.0 | 0.00 | 0.00 | 0.00 | 79 | 1027.7 | |
| 20260902095016 | 73 | 0.0 | 1.0 | 0.00 | 0.00 | 0.00 | 79 | 1027.7 | |
| 20260902094016 | 72 | 68 | 1.0 | 3.0 | 0.00 | 0.00 | 0.00 | 78 | 1027.8 |
| 20260902093036 | 72 | 45 | 2.0 | 3.0 | 0.00 | 0.00 | 0.00 | 79 | 1027.8 |
| 20260902092016 | 72 | 45 | 2.0 | 4.0 | 0.00 | 0.00 | 0.00 | 80 | 1027.8 |
| 20260902091016 | 72 | 45 | 1.0 | 6.0 | 0.00 | 0.00 | 0.00 | 80 | 1027.6 |
| 20260902090036 | 73 | 0.0 | 0.0 | 0.00 | 0.00 | 0.00 | 79 | 1027.5 | |
| 20260902085016 | 73 | 0.0 | 0.0 | 0.00 | 0.00 | 0.00 | 78 | 1027.3 | |
| 20260902084016 | 73 | 0.0 | 0.0 | 0.00 | 0.00 | 0.00 | 78 | 1027.4 | |
| 20260902083016 | 73 | 0.0 | 0.0 | 0.00 | 0.00 | 0.00 | 77 | 1027.5 | |
| 20260902082016 | 74 | 0.0 | 2.0 | 0.00 | 0.00 | 0.00 | 77 | 1027.5 | |
| 20260902081036 | 74 | 0.0 | 0.0 | 0.00 | 0.00 | 0.00 | 75 | 1027.3 | |
| 20260902080016 | 74 | 0.0 | 0.0 | 0.00 | 0.00 | 0.00 | 75 | 1027.3 | |
| 20260902075016 | 75 | 0.0 | 0.0 | 0.00 | 0.00 | 0.00 | 74 | 1027.5 | |
| 20260902074016 | 75 | 0.0 | 1.0 | 0.00 | 0.00 | 0.00 | 73 | 1027.2 | |
| 20260902073016 | 75 | 0.0 | 1.0 | 0.00 | 0.00 | 0.00 | 71 | 1027.3 | |
| 20260902072036 | 76 | 45 | 1.0 | 2.0 | 0.00 | 0.00 | 0.00 | 70 | 1027.4 |
| 20260902071036 | 76 | 45 | 1.0 | 3.0 | 0.00 | 0.00 | 0.00 | 69 | 1027.4 |
| 20260902070036 | 76 | 45 | 1.0 | 3.0 | 0.00 | 0.00 | 0.00 | 68 | 1027.3 |
| 20260902065036 | 77 | 0.0 | 2.0 | 0.00 | 0.00 | 0.00 | 67 | 1027.5 | |
| 20260902064016 | 77 | 45 | 2.0 | 3.0 | 0.00 | 0.00 | 0.00 | 66 | 1027.2 |
| 20260902063016 | 77 | 45 | 2.0 | 3.0 | 0.00 | 0.00 | 0.00 | 65 | 1027.2 |
| 20260902062016 | 78 | 68 | 2.0 | 3.0 | 0.00 | 0.00 | 0.00 | 65 | 1027.4 |
| 20260902061016 | 78 | 0.0 | 1.0 | 0.00 | 0.00 | 0.00 | 62 | 1027.3 | |
| 20260902060056 | 79 | 68 | 1.0 | 2.0 | 0.00 | 0.00 | 0.00 | 61 | 1027.5 |
| 20260902055016 | 80 | 68 | 1.0 | 3.0 | 0.00 | 0.00 | 0.00 | 58 | 1027.5 |
| 20260902054016 | 80 | 68 | 1.0 | 3.0 | 0.00 | 0.00 | 0.00 | 57 | 1027.4 |
| 20260902053016 | 80 | 45 | 3.0 | 5.0 | 0.00 | 0.00 | 0.00 | 57 | 1027.5 |
| 20260902052016 | 80 | 0.0 | 3.0 | 0.00 | 0.00 | 0.00 | 57 | 1027.5 | |
| 20260902051016 | 81 | 68 | 2.0 | 5.0 | 0.00 | 0.00 | 0.00 | 56 | 1027.5 |
| 20260902050016 | 81 | 90 | 2.0 | 4.0 | 0.00 | 0.00 | 0.00 | 56 | 1027.6 |
| 20260902045016 | 81 | 90 | 2.0 | 3.0 | 0.00 | 0.00 | 0.00 | 55 | 1027.6 |
| 20260902044016 | 82 | 90 | 2.0 | 3.0 | 0.00 | 0.00 | 0.00 | 54 | 1027.5 |
| 20260902043016 | 83 | 135 | 1.0 | 3.0 | 0.00 | 0.00 | 0.00 | 53 | 1027.6 |
| 20260902042016 | 83 | 135 | 2.0 | 4.0 | 0.00 | 0.00 | 0.00 | 52 | 1027.5 |
| 20260902041036 | 83 | 135 | 4.0 | 5.0 | 0.00 | 0.00 | 0.00 | 52 | 1027.3 |
| 20260902040036 | 83 | 135 | 3.0 | 5.0 | 0.00 | 0.00 | 0.00 | 52 | 1027.2 |
| 20260902035016 | 83 | 135 | 3.0 | 4.0 | 0.00 | 0.00 | 0.00 | 52 | 1027.1 |
| 20260902034036 | 0 | 0.0 | 0.0 | 0.00 | 0.00 | 0.00 | |||
| 20260902033035 | 0 | 0.0 | 0.0 | 0.00 | 0.00 | 0.00 | |||
| 20260902032036 | 0 | 0.0 | 0.0 | 0.00 | 0.00 | 0.00 | |||
| 20260902031015 | 0 | 0.0 | 0.0 | 0.00 | 0.00 | 0.00 | |||
| 20260902030056 | 0 | 0.0 | 0.0 | 0.00 | 0.00 | 0.00 | |||
| 20260902025016 | 0 | 0.0 | 0.0 | 0.00 | 0.00 | 0.00 | |||
| 20260902024015 | 0 | 0.0 | 0.0 | 0.00 | 0.00 | 0.00 | |||
| 20260902023107 | 86 | 203 | 3.0 | 3.0 | 0.00 | 0.00 | 0.00 | 47 | 1024.8 |
| 20260902022516 | 86 | 180 | 3.0 | 6.0 | 0.00 | 0.00 | 0.00 | 47 | 1024.7 |
| 20260902021517 | 86 | 158 | 3.0 | 5.0 | 0.00 | 0.00 | 0.00 | 46 | 1024.5 |
| 20260902020537 | 0 | 0.0 | 0.0 | 0.00 | 0.00 | 0.00 | |||
| 20260902015516 | 0 | 0.0 | 0.0 | 0.00 | 0.00 | 0.00 | |||
| 20260902014517 | 0 | 0.0 | 0.0 | 0.00 | 0.00 | 0.00 | |||
| 20260902013516 | 0 | 0.0 | 0.0 | 0.00 | 0.00 | 0.00 | |||
| 20260902012517 | 0 | 0.0 | 0.0 | 0.00 | 0.00 | 0.00 | |||
| 20260902011516 | 0 | 0.0 | 0.0 | 0.00 | 0.00 | 0.00 | |||
| 20260902010516 | 0 | 0.0 | 0.0 | 0.00 | 0.00 | 0.00 | |||
| 20260902005517 | 0 | 0.0 | 0.0 | 0.00 | 0.00 | 0.00 | |||
| 20260902004517 | 0 | 0.0 | 0.0 | 0.00 | 0.00 | 0.00 | |||
| 20260902003537 | 0 | 0.0 | 0.0 | 0.00 | 0.00 | 0.00 | |||
| 20260902002516 | 0 | 0.0 | 0.0 | 0.00 | 0.00 | 0.00 | |||
| 20260902001517 | 0 | 0.0 | 0.0 | 0.00 | 0.00 | 0.00 | |||
| 20260902000537 | 0 | 0.0 | 0.0 | 0.00 | 0.00 | 0.00 | |||
| 20260901235517 | 0 | 0.0 | 0.0 | 0.00 | 0.00 | 0.00 | |||
| 20260901234516 | 0 | 0.0 | 0.0 | 0.00 | 0.00 | 0.00 | |||
| 20260901233517 | 0 | 0.0 | 0.0 | 0.00 | 0.00 | 0.00 | |||
| 20260901232516 | 0 | 0.0 | 0.0 | 0.00 | 0.00 | 0.00 | |||
| 20260901231517 | 0 | 0.0 | 0.0 | 0.00 | 0.00 | 0.00 | |||
| 20260901230516 | 0 | 0.0 | 0.0 | 0.00 | 0.00 | 0.00 | |||
| 20260901225517 | 0 | 0.0 | 0.0 | 0.00 | 0.00 | 0.00 | |||
| 20260901224516 | 0 | 0.0 | 0.0 | 0.00 | 0.00 | 0.00 | |||
| 20260901223537 | 0 | 0.0 | 0.0 | 0.00 | 0.00 | 0.00 | |||
| 20260901222515 | 94 | 225 | 5.0 | 0.0 | 0.00 | 0.00 | 0.00 | 36 | 1025.4 |
| 20260901221516 | 94 | 270 | 6.0 | 9.0 | 0.00 | 0.00 | 0.00 | 36 | 1025.5 |
| 20260901220516 | 94 | 270 | 5.0 | 8.0 | 0.00 | 0.00 | 0.00 | 37 | 1025.7 |
| 20260901215516 | 94 | 225 | 5.0 | 10.0 | 0.00 | 0.00 | 0.00 | 36 | 1025.9 |
| 20260901214517 | 93 | 225 | 5.0 | 8.0 | 0.00 | 0.00 | 0.00 | 36 | 1025.9 |
| 20260901213516 | 94 | 248 | 5.0 | 11.0 | 0.00 | 0.00 | 0.00 | 36 | 1026.2 |
| 20260901212516 | 94 | 293 | 4.0 | 8.0 | 0.00 | 0.00 | 0.00 | 36 | 1026.4 |
| 20260901211516 | 94 | 315 | 3.0 | 6.0 | 0.00 | 0.00 | 0.00 | 37 | 1026.7 |
| 20260901210517 | 93 | 315 | 5.0 | 8.0 | 0.00 | 0.00 | 0.00 | 37 | 1026.7 |
| 20260901205516 | 93 | 293 | 3.0 | 5.0 | 0.00 | 0.02 | 0.00 | 38 | 1026.9 |
| 20260901204516 | 92 | 270 | 6.0 | 13.0 | 0.00 | 0.02 | 0.00 | 38 | 1027.0 |
| 20260901203516 | 92 | 315 | 5.0 | 11.0 | 0.00 | 0.04 | 0.00 | 38 | 1027.2 |
| 20260901202516 | 92 | 248 | 3.0 | 9.0 | 0.00 | 0.05 | 0.00 | 37 | 1027.4 |
| 20260901201516 | 93 | 158 | 3.0 | 6.0 | 0.00 | 0.06 | 0.00 | 38 | 1027.6 |
| 20260901200516 | 92 | 180 | 5.0 | 9.0 | 0.00 | 0.08 | 0.00 | 38 | 1027.7 |
| 20260901195516 | 91 | 248 | 4.0 | 9.0 | 0.00 | 0.15 | 0.00 | 40 | 1027.5 |
| 20260901194516 | 91 | 248 | 3.0 | 6.0 | 0.00 | 0.18 | 0.00 | 40 | 1027.7 |
| 20260901193536 | 91 | 248 | 4.0 | 8.0 | 0.00 | 0.18 | 0.00 | 39 | 1027.9 |